Time,TemperatureF,DewpointF,PressureIn,WindDirection,WindDirectionDegrees,WindSpeedMPH,WindSpeedGustMPH,Humidity,HourlyPrecipIn,Conditions,Clouds,dailyrainin,SoftwareType,DateUTC
2013-12-16 00:00:00,31.4,29.1,30.19,East,84,0.0,0.0,91,0.00,,---,0.00,VWS V14.01,2013-12-16 05:00:00,
2013-12-16 00:01:00,31.4,29.1,30.19,East,83,0.0,0.0,91,0.00,,---,0.00,VWS V14.01,2013-12-16 05:01:00,
2013-12-16 00:02:00,31.4,29.1,30.19,East,85,0.0,0.0,91,0.00,,---,0.00,VWS V14.01,2013-12-16 05:02:00,
2013-12-16 00:07:00,31.4,29.1,30.19,East,85,0.0,0.0,91,0.00,,---,0.00,VWS V14.01,2013-12-16 05:07:00,
2013-12-16 00:10:00,31.4,29.1,30.19,East,84,0.0,0.0,91,0.00,,---,0.00,VWS V14.01,2013-12-16 05:10:00,
2013-12-16 00:12:00,31.3,29.0,30.19,East,84,0.0,0.0,91,0.00,,---,0.00,VWS V14.01,2013-12-16 05:12:00,
2013-12-16 00:17:00,31.3,29.0,30.19,East,85,0.0,0.0,91,0.00,,---,0.00,VWS V14.01,2013-12-16 05:17:00,
2013-12-16 00:20:00,31.3,29.0,30.20,East,84,0.0,0.0,91,0.00,,---,0.00,VWS V14.01,2013-12-16 05:20:00,
2013-12-16 00:22:00,31.3,29.0,30.19,East,84,0.0,0.0,91,0.00,,---,0.00,VWS V14.01,2013-12-16 05:22:00,
2013-12-16 00:27:00,31.2,28.9,30.19,East,83,0.0,0.0,91,0.00,,---,0.00,VWS V14.01,2013-12-16 05:27:00,
2013-12-16 00:30:00,31.2,28.9,30.19,East,84,0.0,0.0,91,0.00,,---,0.00,VWS V14.01,2013-12-16 05:30:00,
2013-12-16 00:32:00,31.1,28.8,30.19,East,85,0.0,0.0,91,0.00,,---,0.00,VWS V14.01,2013-12-16 05:32:00,
2013-12-16 00:37:00,31.0,28.7,30.19,SW,235,0.0,1.0,91,0.00,,---,0.00,VWS V14.01,2013-12-16 05:37:00,
2013-12-16 00:40:00,31.0,28.7,30.19,SW,235,0.0,1.0,91,0.00,,---,0.00,VWS V14.01,2013-12-16 05:40:00,
2013-12-16 00:42:00,31.0,28.7,30.19,SW,235,0.0,0.0,91,0.00,,---,0.00,VWS V14.01,2013-12-16 05:42:00,
2013-12-16 00:47:00,30.9,28.6,30.19,SW,235,0.0,0.0,91,0.00,,---,0.00,VWS V14.01,2013-12-16 05:47:00,
2013-12-16 00:50:00,31.0,29.0,30.19,SW,235,0.0,0.0,92,0.00,,---,0.00,VWS V14.01,2013-12-16 05:50:00,
2013-12-16 00:52:00,30.9,28.6,30.18,SW,234,0.0,0.0,91,0.00,,---,0.00,VWS V14.01,2013-12-16 05:52:00,
2013-12-16 00:57:00,30.9,28.9,30.18,SW,235,0.0,0.0,92,0.00,,---,0.00,VWS V14.01,2013-12-16 05:57:00,
2013-12-16 01:00:00,30.9,28.9,30.18,SW,235,0.0,0.0,92,0.00,,---,0.00,VWS V14.01,2013-12-16 06:00:00,
2013-12-16 01:02:00,30.9,28.9,30.18,SW,235,0.0,0.0,92,0.00,,---,0.00,VWS V14.01,2013-12-16 06:02:00,
2013-12-16 01:07:00,30.8,28.8,30.18,SW,235,0.0,0.0,92,0.00,,---,0.00,VWS V14.01,2013-12-16 06:07:00,
2013-12-16 01:10:00,30.8,28.8,30.18,SW,234,0.0,0.0,92,0.00,,---,0.00,VWS V14.01,2013-12-16 06:10:00,
2013-12-16 01:12:00,30.8,28.8,30.18,SW,235,0.0,0.0,92,0.00,,---,0.00,VWS V14.01,2013-12-16 06:12:00,
2013-12-16 01:17:00,30.8,28.8,30.18,SW,235,0.0,0.0,92,0.00,,---,0.00,VWS V14.01,2013-12-16 06:17:00,
2013-12-16 01:20:00,30.8,28.8,30.18,SW,235,0.0,0.0,92,0.00,,---,0.00,VWS V14.01,2013-12-16 06:20:00,
2013-12-16 01:22:00,30.8,28.8,30.18,SW,235,0.0,0.0,92,0.00,,---,0.00,VWS V14.01,2013-12-16 06:22:00,
2013-12-16 01:27:00,30.7,28.7,30.18,SW,226,0.0,0.0,92,0.00,,---,0.00,VWS V14.01,2013-12-16 06:27:00,
2013-12-16 01:30:00,30.7,28.7,30.18,SW,226,0.0,0.0,92,0.00,,---,0.00,VWS V14.01,2013-12-16 06:30:00,
2013-12-16 01:32:00,30.6,28.6,30.18,SW,226,0.0,0.0,92,0.00,,---,0.00,VWS V14.01,2013-12-16 06:32:00,
2013-12-16 01:37:00,30.6,28.6,30.18,SW,226,0.0,0.0,92,0.00,,---,0.00,VWS V14.01,2013-12-16 06:37:00,
2013-12-16 01:40:00,30.5,28.5,30.18,SW,226,0.0,0.0,92,0.00,,---,0.00,VWS V14.01,2013-12-16 06:40:00,
2013-12-16 01:42:00,30.5,28.5,30.18,SW,226,0.0,0.0,92,0.00,,---,0.00,VWS V14.01,2013-12-16 06:42:00,
2013-12-16 01:47:00,30.4,28.4,30.18,NW,315,0.0,1.0,92,0.00,,---,0.00,VWS V14.01,2013-12-16 06:47:00,
2013-12-16 01:50:00,30.4,28.4,30.18,NW,315,0.0,1.0,92,0.00,,---,0.00,VWS V14.01,2013-12-16 06:50:00,
2013-12-16 01:52:00,30.4,28.4,30.18,NW,314,0.0,0.0,92,0.00,,---,0.00,VWS V14.01,2013-12-16 06:52:00,
2013-12-16 01:57:00,30.4,28.6,30.18,NW,314,0.0,0.0,93,0.00,,---,0.00,VWS V14.01,2013-12-16 06:57:00,
2013-12-16 02:00:00,30.4,28.6,30.18,NW,314,0.0,0.0,93,0.00,,---,0.00,VWS V14.01,2013-12-16 07:00:00,
2013-12-16 02:02:00,30.4,28.6,30.18,NW,314,0.0,0.0,93,0.00,,---,0.00,VWS V14.01,2013-12-16 07:02:00,
2013-12-16 02:07:00,30.4,28.4,30.18,NW,314,0.0,0.0,92,0.00,,---,0.00,VWS V14.01,2013-12-16 07:07:00,
2013-12-16 02:10:00,30.4,28.6,30.18,NW,314,0.0,0.0,93,0.00,,---,0.00,VWS V14.01,2013-12-16 07:10:00,
2013-12-16 02:12:00,30.3,28.5,30.18,NW,314,0.0,0.0,93,0.00,,---,0.00,VWS V14.01,2013-12-16 07:12:00,
2013-12-16 02:17:00,30.3,28.5,30.19,NW,315,0.0,0.0,93,0.00,,---,0.00,VWS V14.01,2013-12-16 07:17:00,
2013-12-16 02:20:00,30.3,28.5,30.19,NW,314,0.0,0.0,93,0.00,,---,0.00,VWS V14.01,2013-12-16 07:20:00,
2013-12-16 02:22:00,30.2,28.4,30.19,NW,314,0.0,0.0,93,0.00,,---,0.00,VWS V14.01,2013-12-16 07:22:00,
2013-12-16 02:27:00,30.1,28.3,30.19,NW,316,0.0,0.0,93,0.00,,---,0.00,VWS V14.01,2013-12-16 07:27:00,
2013-12-16 02:30:00,30.1,28.3,30.19,NW,314,0.0,0.0,93,0.00,,---,0.00,VWS V14.01,2013-12-16 07:30:00,
2013-12-16 02:32:00,30.1,28.3,30.20,NW,316,0.0,0.0,93,0.00,,---,0.00,VWS V14.01,2013-12-16 07:32:00,
2013-12-16 02:37:00,30.0,28.2,30.20,NW,316,0.0,0.0,93,0.00,,---,0.00,VWS V14.01,2013-12-16 07:37:00,
2013-12-16 02:40:00,30.0,28.2,30.20,NW,316,0.0,0.0,93,0.00,,---,0.00,VWS V14.01,2013-12-16 07:40:00,
2013-12-16 02:42:00,30.0,28.2,30.19,NW,314,0.0,0.0,93,0.00,,---,0.00,VWS V14.01,2013-12-16 07:42:00,
2013-12-16 02:47:00,30.0,28.2,30.20,NW,316,0.0,0.0,93,0.00,,---,0.00,VWS V14.01,2013-12-16 07:47:00,
2013-12-16 02:50:00,30.0,28.2,30.19,NW,315,0.0,0.0,93,0.00,,---,0.00,VWS V14.01,2013-12-16 07:50:00,
2013-12-16 02:52:00,30.0,28.2,30.19,NW,316,0.0,0.0,93,0.00,,---,0.00,VWS V14.01,2013-12-16 07:52:00,
2013-12-16 02:57:00,30.0,28.2,30.19,NW,316,0.0,0.0,93,0.00,,---,0.00,VWS V14.01,2013-12-16 07:57:00,
2013-12-16 03:00:00,30.0,28.2,30.20,NW,316,0.0,0.0,93,0.00,,---,0.00,VWS V14.01,2013-12-16 08:00:00,
2013-12-16 03:02:00,30.0,28.2,30.19,NW,316,0.0,0.0,93,0.00,,---,0.00,VWS V14.01,2013-12-16 08:02:00,
2013-12-16 03:07:00,29.9,28.1,30.20,NW,316,0.0,0.0,93,0.00,,---,0.00,VWS V14.01,2013-12-16 08:07:00,
2013-12-16 03:10:00,29.9,28.1,30.20,NW,316,0.0,0.0,93,0.00,,---,0.00,VWS V14.01,2013-12-16 08:10:00,
2013-12-16 03:12:00,29.9,28.1,30.20,NW,316,0.0,0.0,93,0.00,,---,0.00,VWS V14.01,2013-12-16 08:12:00,
2013-12-16 03:17:00,29.9,28.1,30.20,NW,316,0.0,0.0,93,0.00,,---,0.00,VWS V14.01,2013-12-16 08:17:00,
2013-12-16 03:20:00,29.9,28.1,30.20,NW,316,0.0,0.0,93,0.00,,---,0.00,VWS V14.01,2013-12-16 08:20:00,
2013-12-16 03:22:00,29.9,28.1,30.20,NW,316,0.0,0.0,93,0.00,,---,0.00,VWS V14.01,2013-12-16 08:22:00,
2013-12-16 03:27:00,29.9,28.1,30.20,NW,316,0.0,0.0,93,0.00,,---,0.00,VWS V14.01,2013-12-16 08:27:00,
2013-12-16 03:30:00,29.9,28.1,30.20,NW,316,0.0,0.0,93,0.00,,---,0.00,VWS V14.01,2013-12-16 08:30:00,
2013-12-16 03:32:00,29.9,28.1,30.20,NW,316,0.0,0.0,93,0.00,,---,0.00,VWS V14.01,2013-12-16 08:32:00,
2013-12-16 03:37:00,30.0,28.2,30.20,NW,316,0.0,0.0,93,0.00,,---,0.00,VWS V14.01,2013-12-16 08:37:00,
2013-12-16 03:40:00,30.0,28.2,30.20,NW,316,0.0,0.0,93,0.00,,---,0.00,VWS V14.01,2013-12-16 08:40:00,
2013-12-16 03:42:00,29.9,28.1,30.19,NW,316,0.0,0.0,93,0.00,,---,0.00,VWS V14.01,2013-12-16 08:42:00,
2013-12-16 03:47:00,29.9,28.1,30.19,NW,316,0.0,0.0,93,0.00,,---,0.00,VWS V14.01,2013-12-16 08:47:00,
2013-12-16 03:50:00,29.9,28.1,30.19,NW,316,0.0,0.0,93,0.00,,---,0.00,VWS V14.01,2013-12-16 08:50:00,
2013-12-16 03:52:00,29.9,28.1,30.19,NW,316,0.0,0.0,93,0.00,,---,0.00,VWS V14.01,2013-12-16 08:52:00,
2013-12-16 03:57:00,29.9,28.1,30.19,NW,316,0.0,0.0,93,0.00,,---,0.00,VWS V14.01,2013-12-16 08:57:00,
2013-12-16 04:00:00,29.8,28.0,30.19,NW,316,0.0,0.0,93,0.00,,---,0.00,VWS V14.01,2013-12-16 09:00:00,
2013-12-16 04:02:00,29.8,28.0,30.19,NW,316,0.0,0.0,93,0.00,,---,0.00,VWS V14.01,2013-12-16 09:02:00,
2013-12-16 04:07:00,29.8,28.0,30.20,NW,316,0.0,0.0,93,0.00,,---,0.00,VWS V14.01,2013-12-16 09:07:00,
2013-12-16 04:10:00,29.8,28.0,30.20,NW,316,0.0,0.0,93,0.00,,---,0.00,VWS V14.01,2013-12-16 09:10:00,
2013-12-16 04:12:00,29.8,28.0,30.19,NW,316,0.0,0.0,93,0.00,,---,0.00,VWS V14.01,2013-12-16 09:12:00,
2013-12-16 04:17:00,29.8,28.0,30.19,NW,316,0.0,0.0,93,0.00,,---,0.00,VWS V14.01,2013-12-16 09:17:00,
2013-12-16 04:20:00,29.8,28.0,30.19,NW,316,0.0,0.0,93,0.00,,---,0.00,VWS V14.01,2013-12-16 09:20:00,
2013-12-16 04:22:00,29.8,28.0,30.19,NW,316,0.0,0.0,93,0.00,,---,0.00,VWS V14.01,2013-12-16 09:22:00,
2013-12-16 04:27:00,29.8,28.0,30.20,NW,316,0.0,0.0,93,0.00,,---,0.00,VWS V14.01,2013-12-16 09:27:00,
2013-12-16 04:30:00,29.8,28.0,30.19,NW,316,0.0,0.0,93,0.00,,---,0.00,VWS V14.01,2013-12-16 09:30:00,
2013-12-16 04:32:00,29.8,28.0,30.20,NW,316,0.0,0.0,93,0.00,,---,0.00,VWS V14.01,2013-12-16 09:32:00,
2013-12-16 04:37:00,29.9,28.1,30.20,NW,311,0.0,0.0,93,0.00,,---,0.00,VWS V14.01,2013-12-16 09:37:00,
2013-12-16 04:40:00,29.9,28.1,30.20,NW,312,0.0,0.0,93,0.00,,---,0.00,VWS V14.01,2013-12-16 09:40:00,
2013-12-16 04:42:00,29.9,28.1,30.20,NW,312,0.0,0.0,93,0.00,,---,0.00,VWS V14.01,2013-12-16 09:42:00,
2013-12-16 04:47:00,29.9,28.1,30.20,NW,314,0.0,0.0,93,0.00,,---,0.00,VWS V14.01,2013-12-16 09:47:00,
2013-12-16 04:50:00,29.9,28.1,30.20,NW,313,0.0,0.0,93,0.00,,---,0.00,VWS V14.01,2013-12-16 09:50:00,
2013-12-16 04:52:00,30.0,28.2,30.20,NW,314,0.0,0.0,93,0.00,,---,0.00,VWS V14.01,2013-12-16 09:52:00,
2013-12-16 04:57:00,30.0,28.2,30.20,NW,314,0.0,0.0,93,0.00,,---,0.00,VWS V14.01,2013-12-16 09:57:00,
2013-12-16 05:00:00,30.0,28.2,30.20,NW,314,0.0,0.0,93,0.00,,---,0.00,VWS V14.01,2013-12-16 10:00:00,
2013-12-16 05:02:00,30.0,28.2,30.20,NW,314,0.0,0.0,93,0.00,,---,0.00,VWS V14.01,2013-12-16 10:02:00,
2013-12-16 05:07:00,30.0,28.2,30.20,NW,314,0.0,0.0,93,0.00,,---,0.00,VWS V14.01,2013-12-16 10:07:00,
2013-12-16 05:10:00,30.0,28.2,30.20,NW,314,0.0,0.0,93,0.00,,---,0.00,VWS V14.01,2013-12-16 10:10:00,
2013-12-16 05:12:00,30.0,28.2,30.20,NW,314,0.0,0.0,93,0.00,,---,0.00,VWS V14.01,2013-12-16 10:12:00,
2013-12-16 05:17:00,30.0,28.2,30.20,NW,314,0.0,0.0,93,0.00,,---,0.00,VWS V14.01,2013-12-16 10:17:00,
2013-12-16 05:20:00,30.0,28.2,30.20,NW,314,0.0,0.0,93,0.00,,---,0.00,VWS V14.01,2013-12-16 10:20:00,
2013-12-16 05:22:00,30.0,28.2,30.21,NW,313,0.0,0.0,93,0.00,,---,0.00,VWS V14.01,2013-12-16 10:22:00,
2013-12-16 05:27:00,29.9,28.1,30.21,NW,313,0.0,0.0,93,0.00,,---,0.00,VWS V14.01,2013-12-16 10:27:00,
2013-12-16 05:30:00,30.0,28.2,30.21,NW,313,0.0,0.0,93,0.00,,---,0.00,VWS V14.01,2013-12-16 10:30:00,
2013-12-16 05:32:00,29.9,28.1,30.21,NW,314,0.0,0.0,93,0.00,,---,0.00,VWS V14.01,2013-12-16 10:32:00,
2013-12-16 05:37:00,29.9,28.1,30.21,NW,314,0.0,0.0,93,0.00,,---,0.00,VWS V14.01,2013-12-16 10:37:00,
2013-12-16 05:40:00,29.9,28.1,30.21,NW,314,0.0,0.0,93,0.00,,---,0.00,VWS V14.01,2013-12-16 10:40:00,
2013-12-16 05:42:00,29.8,28.0,30.20,NW,314,0.0,0.0,93,0.00,,---,0.00,VWS V14.01,2013-12-16 10:42:00,
2013-12-16 05:47:00,29.8,28.0,30.21,NW,314,0.0,0.0,93,0.00,,---,0.00,VWS V14.01,2013-12-16 10:47:00,
2013-12-16 05:50:00,29.8,28.0,30.21,NW,314,0.0,0.0,93,0.00,,---,0.00,VWS V14.01,2013-12-16 10:50:00,
2013-12-16 05:52:00,29.8,28.0,30.21,NW,314,0.0,0.0,93,0.00,,---,0.00,VWS V14.01,2013-12-16 10:52:00,
2013-12-16 05:57:00,29.8,28.0,30.21,NW,314,0.0,0.0,93,0.00,,---,0.00,VWS V14.01,2013-12-16 10:57:00,
2013-12-16 06:00:00,29.7,27.9,30.21,NW,314,0.0,0.0,93,0.00,,---,0.00,VWS V14.01,2013-12-16 11:00:00,
2013-12-16 06:02:00,29.7,27.9,30.21,NW,314,0.0,0.0,93,0.00,,---,0.00,VWS V14.01,2013-12-16 11:02:00,
2013-12-16 06:07:00,29.7,27.9,30.21,NW,314,0.0,0.0,93,0.00,,---,0.00,VWS V14.01,2013-12-16 11:07:00,
2013-12-16 06:10:00,29.7,28.2,30.21,NW,314,0.0,0.0,94,0.00,,---,0.00,VWS V14.01,2013-12-16 11:10:00,
2013-12-16 06:12:00,29.7,28.2,30.22,NW,314,0.0,0.0,94,0.00,,---,0.00,VWS V14.01,2013-12-16 11:12:00,
2013-12-16 06:17:00,29.6,28.1,30.22,NW,314,0.0,0.0,94,0.00,,---,0.00,VWS V14.01,2013-12-16 11:17:00,
2013-12-16 06:20:00,29.6,28.1,30.22,NW,314,0.0,0.0,94,0.00,,---,0.00,VWS V14.01,2013-12-16 11:20:00,
2013-12-16 06:22:00,29.6,28.1,30.22,East,94,0.0,0.0,94,0.00,,---,0.00,VWS V14.01,2013-12-16 11:22:00,
2013-12-16 06:27:00,29.6,28.1,30.22,East,94,0.0,0.0,94,0.00,,---,0.00,VWS V14.01,2013-12-16 11:27:00,
2013-12-16 06:30:00,29.6,28.1,30.23,East,94,0.0,0.0,94,0.00,,---,0.00,VWS V14.01,2013-12-16 11:30:00,
2013-12-16 06:32:00,29.6,28.1,30.22,East,92,0.0,0.0,94,0.00,,---,0.00,VWS V14.01,2013-12-16 11:32:00,
2013-12-16 06:37:00,29.6,28.1,30.22,East,94,0.0,0.0,94,0.00,,---,0.00,VWS V14.01,2013-12-16 11:37:00,
2013-12-16 06:40:00,29.6,28.1,30.22,East,94,0.0,0.0,94,0.00,,---,0.00,VWS V14.01,2013-12-16 11:40:00,
2013-12-16 06:42:00,29.6,28.1,30.22,East,94,0.0,0.0,94,0.00,,---,0.00,VWS V14.01,2013-12-16 11:42:00,
2013-12-16 06:47:00,29.6,28.1,30.22,East,95,0.0,0.0,94,0.00,,---,0.00,VWS V14.01,2013-12-16 11:47:00,
2013-12-16 06:50:00,29.6,28.1,30.22,East,94,0.0,0.0,94,0.00,,---,0.00,VWS V14.01,2013-12-16 11:50:00,
2013-12-16 06:52:00,29.7,28.2,30.22,East,94,0.0,0.0,94,0.00,,---,0.00,VWS V14.01,2013-12-16 11:52:00,
2013-12-16 06:56:00,29.6,28.1,30.23,East,94,0.0,0.0,94,0.00,,---,0.00,VWS V14.01,2013-12-16 11:56:00,
2013-12-16 07:00:00,29.7,28.2,30.23,East,94,0.0,0.0,94,0.00,,---,0.00,VWS V14.01,2013-12-16 12:00:00,
2013-12-16 07:01:00,29.7,28.2,30.23,East,94,0.0,0.0,94,0.00,,---,0.00,VWS V14.01,2013-12-16 12:01:00,
2013-12-16 07:07:00,29.7,28.2,30.23,ESE,117,0.0,0.0,94,0.00,,---,0.00,VWS V14.01,2013-12-16 12:07:00,
2013-12-16 07:10:00,29.7,28.2,30.23,ESE,117,0.0,0.0,94,0.00,,---,0.00,VWS V14.01,2013-12-16 12:10:00,
2013-12-16 07:11:00,29.7,28.2,30.23,ESE,117,0.0,0.0,94,0.00,,---,0.00,VWS V14.01,2013-12-16 12:11:00,
2013-12-16 07:17:00,29.6,28.1,30.23,ESE,117,0.0,0.0,94,0.00,,---,0.00,VWS V14.01,2013-12-16 12:17:00,
2013-12-16 07:20:00,29.6,28.1,30.23,ESE,117,0.0,0.0,94,0.00,,---,0.00,VWS V14.01,2013-12-16 12:20:00,
2013-12-16 07:22:00,29.6,28.1,30.23,ESE,117,0.0,0.0,94,0.00,,---,0.00,VWS V14.01,2013-12-16 12:22:00,
2013-12-16 07:27:00,29.6,28.1,30.24,ESE,117,0.0,0.0,94,0.00,,---,0.00,VWS V14.01,2013-12-16 12:27:00,
2013-12-16 07:30:00,29.6,28.1,30.24,ESE,115,0.0,0.0,94,0.00,,---,0.00,VWS V14.01,2013-12-16 12:30:00,
2013-12-16 07:32:00,29.5,28.0,30.24,ESE,115,0.0,0.0,94,0.00,,---,0.00,VWS V14.01,2013-12-16 12:32:00,
2013-12-16 07:37:00,29.5,28.0,30.23,ESE,116,0.0,0.0,94,0.00,,---,0.00,VWS V14.01,2013-12-16 12:37:00,
2013-12-16 07:40:00,29.5,28.0,30.24,ESE,115,0.0,0.0,94,0.00,,---,0.00,VWS V14.01,2013-12-16 12:40:00,
2013-12-16 07:42:00,29.5,28.0,30.24,ESE,115,0.0,0.0,94,0.00,,---,0.00,VWS V14.01,2013-12-16 12:42:00,
2013-12-16 07:47:00,29.5,28.0,30.24,ESE,115,0.0,0.0,94,0.00,,---,0.00,VWS V14.01,2013-12-16 12:47:00,
2013-12-16 07:50:00,29.5,28.0,30.24,ESE,116,0.0,0.0,94,0.00,,---,0.00,VWS V14.01,2013-12-16 12:50:00,
2013-12-16 07:52:00,29.4,27.9,30.24,ESE,115,0.0,0.0,94,0.00,,---,0.00,VWS V14.01,2013-12-16 12:52:00,
2013-12-16 07:57:00,29.4,27.9,30.24,ESE,115,0.0,0.0,94,0.00,,---,0.00,VWS V14.01,2013-12-16 12:57:00,
2013-12-16 08:00:00,29.5,28.0,30.24,ESE,115,0.0,0.0,94,0.00,,---,0.00,VWS V14.01,2013-12-16 13:00:00,
2013-12-16 08:02:00,29.5,28.0,30.24,ESE,115,0.0,0.0,94,0.00,,---,0.00,VWS V14.01,2013-12-16 13:02:00,
2013-12-16 08:07:00,29.6,28.1,30.24,ESE,115,0.0,0.0,94,0.00,,---,0.00,VWS V14.01,2013-12-16 13:07:00,
2013-12-16 08:10:00,29.6,28.4,30.24,ESE,115,0.0,0.0,95,0.00,,---,0.00,VWS V14.01,2013-12-16 13:10:00,
2013-12-16 08:12:00,29.6,28.4,30.24,ESE,115,0.0,0.0,95,0.00,,---,0.00,VWS V14.01,2013-12-16 13:12:00,
2013-12-16 08:17:00,29.8,28.5,30.24,ESE,117,0.0,0.0,95,0.00,,---,0.00,VWS V14.01,2013-12-16 13:17:00,
2013-12-16 08:20:00,29.9,28.6,30.24,ESE,117,0.0,0.0,95,0.00,,---,0.00,VWS V14.01,2013-12-16 13:20:00,
2013-12-16 08:22:00,30.1,28.8,30.24,ESE,117,0.0,0.0,95,0.00,,---,0.00,VWS V14.01,2013-12-16 13:22:00,
2013-12-16 08:27:00,30.4,29.1,30.24,ESE,115,0.0,0.0,95,0.00,,---,0.00,VWS V14.01,2013-12-16 13:27:00,
2013-12-16 08:30:00,30.5,29.2,30.24,ESE,115,0.0,0.0,95,0.00,,---,0.00,VWS V14.01,2013-12-16 13:30:00,
2013-12-16 08:32:00,30.7,29.4,30.24,ESE,115,0.0,0.0,95,0.00,,---,0.00,VWS V14.01,2013-12-16 13:32:00,
2013-12-16 08:37:00,31.0,29.5,30.25,ESE,115,0.0,0.0,94,0.00,,---,0.00,VWS V14.01,2013-12-16 13:37:00,
2013-12-16 08:40:00,31.2,29.7,30.25,ESE,117,0.0,0.0,94,0.00,,---,0.00,VWS V14.01,2013-12-16 13:40:00,
2013-12-16 08:42:00,31.4,29.9,30.25,ESE,115,0.0,0.0,94,0.00,,---,0.00,VWS V14.01,2013-12-16 13:42:00,
2013-12-16 08:47:00,32.3,30.8,30.25,ESE,118,0.0,0.0,94,0.00,,---,0.00,VWS V14.01,2013-12-16 13:47:00,
2013-12-16 08:50:00,32.7,31.2,30.25,ESE,115,0.0,0.0,94,0.00,,---,0.00,VWS V14.01,2013-12-16 13:50:00,
2013-12-16 08:52:00,33.2,31.4,30.25,South,188,0.0,0.0,93,0.00,,---,0.00,VWS V14.01,2013-12-16 13:52:00,
2013-12-16 08:57:00,33.7,31.4,30.25,South,186,0.0,0.0,91,0.00,,---,0.00,VWS V14.01,2013-12-16 13:57:00,
2013-12-16 09:00:00,33.8,31.5,30.25,South,187,0.0,0.0,91,0.00,,---,0.00,VWS V14.01,2013-12-16 14:00:00,
2013-12-16 09:02:00,34.0,31.6,30.26,SE,129,0.0,0.0,91,0.00,,---,0.00,VWS V14.01,2013-12-16 14:02:00,
2013-12-16 09:07:00,34.2,31.6,30.26,SE,128,0.0,1.0,90,0.00,,---,0.00,VWS V14.01,2013-12-16 14:07:00,
2013-12-16 09:10:00,34.3,31.7,30.26,SE,128,0.0,1.0,90,0.00,,---,0.00,VWS V14.01,2013-12-16 14:10:00,
2013-12-16 09:12:00,34.4,31.8,30.26,SE,129,0.0,0.0,90,0.00,,---,0.00,VWS V14.01,2013-12-16 14:12:00,
2013-12-16 09:17:00,34.5,31.9,30.26,SE,129,0.0,0.0,90,0.00,,---,0.00,VWS V14.01,2013-12-16 14:17:00,
2013-12-16 09:20:00,34.6,32.0,30.26,SE,128,0.0,0.0,90,0.00,,---,0.00,VWS V14.01,2013-12-16 14:20:00,
2013-12-16 09:22:00,34.8,31.9,30.26,SE,129,0.0,0.0,89,0.00,,---,0.00,VWS V14.01,2013-12-16 14:22:00,
2013-12-16 09:27:00,35.2,32.3,30.26,SE,128,0.0,0.0,89,0.00,,---,0.00,VWS V14.01,2013-12-16 14:27:00,
2013-12-16 09:30:00,35.4,32.5,30.26,SE,129,0.0,0.0,89,0.00,,---,0.00,VWS V14.01,2013-12-16 14:30:00,
2013-12-16 09:32:00,35.7,32.8,30.26,SE,124,0.0,0.0,89,0.00,,---,0.00,VWS V14.01,2013-12-16 14:32:00,
2013-12-16 09:37:00,36.2,33.0,30.26,SE,125,0.0,0.0,88,0.00,,---,0.00,VWS V14.01,2013-12-16 14:37:00,
2013-12-16 09:40:00,36.5,33.0,30.26,SE,124,0.0,0.0,87,0.00,,---,0.00,VWS V14.01,2013-12-16 14:40:00,
2013-12-16 09:42:00,36.8,33.3,30.26,SE,125,0.0,0.0,87,0.00,,---,0.00,VWS V14.01,2013-12-16 14:42:00,
2013-12-16 09:47:00,37.3,33.5,30.26,SE,125,0.0,0.0,86,0.00,,---,0.00,VWS V14.01,2013-12-16 14:47:00,
2013-12-16 09:50:00,37.5,33.7,30.26,SE,124,0.0,0.0,86,0.00,,---,0.00,VWS V14.01,2013-12-16 14:50:00,
2013-12-16 09:52:00,37.6,33.5,30.26,SE,124,0.0,0.0,85,0.00,,---,0.00,VWS V14.01,2013-12-16 14:52:00,
2013-12-16 09:57:00,37.7,33.6,30.26,East,97,0.0,0.0,85,0.00,,---,0.00,VWS V14.01,2013-12-16 14:57:00,
2013-12-16 10:00:00,37.9,33.8,30.26,East,98,0.0,0.0,85,0.00,,---,0.00,VWS V14.01,2013-12-16 15:00:00,
2013-12-16 10:02:00,38.1,33.4,30.27,East,97,0.0,1.0,83,0.00,,---,0.00,VWS V14.01,2013-12-16 15:02:00,
2013-12-16 10:07:00,38.4,33.7,30.27,East,99,0.0,1.0,83,0.00,,---,0.00,VWS V14.01,2013-12-16 15:07:00,
2013-12-16 10:10:00,38.5,33.8,30.27,East,98,0.0,1.0,83,0.00,,---,0.00,VWS V14.01,2013-12-16 15:10:00,
2013-12-16 10:12:00,38.7,33.7,30.27,ESE,110,0.0,0.0,82,0.00,,---,0.00,VWS V14.01,2013-12-16 15:12:00,
2013-12-16 10:17:00,39.2,34.2,30.27,ESE,110,0.0,0.0,82,0.00,,---,0.00,VWS V14.01,2013-12-16 15:17:00,
2013-12-16 10:20:00,39.5,34.2,30.27,ESE,112,0.0,0.0,81,0.00,,---,0.00,VWS V14.01,2013-12-16 15:20:00,
2013-12-16 10:22:00,39.8,34.5,30.27,ESE,110,0.0,0.0,81,0.00,,---,0.00,VWS V14.01,2013-12-16 15:22:00,
2013-12-16 10:27:00,40.1,34.4,30.27,West,264,0.0,1.0,80,0.00,,---,0.00,VWS V14.01,2013-12-16 15:27:00,
2013-12-16 10:30:00,40.3,34.3,30.27,West,264,0.0,1.0,79,0.00,,---,0.00,VWS V14.01,2013-12-16 15:30:00,
2013-12-16 10:32:00,40.7,34.4,30.27,West,264,0.0,0.0,78,0.00,,---,0.00,VWS V14.01,2013-12-16 15:32:00,
2013-12-16 10:37:00,41.1,34.5,30.27,SSW,211,0.0,1.0,77,0.00,,---,0.00,VWS V14.01,2013-12-16 15:37:00,
2013-12-16 10:40:00,41.3,34.7,30.27,SSW,211,0.0,1.0,77,0.00,,---,0.00,VWS V14.01,2013-12-16 15:40:00,
2013-12-16 10:42:00,41.5,34.5,30.27,SSW,210,0.0,1.0,76,0.00,,---,0.00,VWS V14.01,2013-12-16 15:42:00,
2013-12-16 10:47:00,42.0,35.0,30.27,SSW,211,0.0,1.0,76,0.00,,---,0.00,VWS V14.01,2013-12-16 15:47:00,
2013-12-16 10:50:00,42.2,34.9,30.27,SSW,211,0.0,1.0,75,0.00,,---,0.00,VWS V14.01,2013-12-16 15:50:00,
2013-12-16 10:52:00,42.4,35.0,30.27,ESE,109,0.0,0.0,75,0.00,,---,0.00,VWS V14.01,2013-12-16 15:52:00,
2013-12-16 10:57:00,42.7,35.0,30.27,ESE,107,0.0,0.0,74,0.00,,---,0.00,VWS V14.01,2013-12-16 15:57:00,
2013-12-16 11:00:00,42.7,34.7,30.27,ESE,108,0.0,0.0,73,0.00,,---,0.00,VWS V14.01,2013-12-16 16:00:00,
2013-12-16 11:02:00,42.8,34.4,30.27,ESE,108,0.0,0.0,72,0.00,,---,0.00,VWS V14.01,2013-12-16 16:02:00,
2013-12-16 11:07:00,43.0,34.6,30.27,ESE,105,0.0,0.0,72,0.00,,---,0.00,VWS V14.01,2013-12-16 16:07:00,
2013-12-16 11:10:00,43.1,34.7,30.27,ESE,105,0.0,0.0,72,0.00,,---,0.00,VWS V14.01,2013-12-16 16:10:00,
2013-12-16 11:12:00,43.2,34.5,30.27,North,354,0.0,0.0,71,0.00,,---,0.00,VWS V14.01,2013-12-16 16:12:00,
2013-12-16 11:17:00,43.3,34.2,30.27,NNW,331,0.0,0.0,70,0.00,,---,0.00,VWS V14.01,2013-12-16 16:17:00,
2013-12-16 11:20:00,43.3,34.2,30.27,NE,51,0.0,1.0,70,0.00,,---,0.00,VWS V14.01,2013-12-16 16:20:00,
2013-12-16 11:22:00,43.4,33.9,30.27,ESE,103,0.0,0.0,69,0.00,,---,0.00,VWS V14.01,2013-12-16 16:22:00,
2013-12-16 11:27:00,43.6,34.5,30.26,East,82,0.0,0.0,70,0.00,,---,0.00,VWS V14.01,2013-12-16 16:27:00,
2013-12-16 11:30:00,43.8,34.3,30.26,NE,37,0.0,0.0,69,0.00,,---,0.00,VWS V14.01,2013-12-16 16:30:00,
2013-12-16 11:32:00,44.0,33.8,30.26,NW,304,1.0,1.0,67,0.00,,---,0.00,VWS V14.01,2013-12-16 16:32:00,
2013-12-16 11:37:00,44.2,33.2,30.26,SE,132,0.0,1.0,65,0.00,,---,0.00,VWS V14.01,2013-12-16 16:37:00,
2013-12-16 11:40:00,44.3,33.3,30.26,SE,133,0.0,2.0,65,0.00,,---,0.00,VWS V14.01,2013-12-16 16:40:00,
2013-12-16 11:42:00,44.5,33.5,30.25,SE,144,0.0,2.0,65,0.00,,---,0.00,VWS V14.01,2013-12-16 16:42:00,
2013-12-16 11:47:00,44.8,33.4,30.25,ESE,114,0.0,2.0,64,0.00,,---,0.00,VWS V14.01,2013-12-16 16:47:00,
2013-12-16 11:50:00,44.9,33.9,30.25,ESE,116,0.0,2.0,65,0.00,,---,0.00,VWS V14.01,2013-12-16 16:50:00,
2013-12-16 11:52:00,45.1,33.7,30.25,ESE,115,0.0,0.0,64,0.00,,---,0.00,VWS V14.01,2013-12-16 16:52:00,
2013-12-16 11:57:00,45.4,34.3,30.25,ESE,117,0.0,0.0,65,0.00,,---,0.00,VWS V14.01,2013-12-16 16:57:00,
2013-12-16 12:00:00,45.6,33.3,30.25,North,9,0.0,1.0,62,0.00,,---,0.00,VWS V14.01,2013-12-16 17:00:00,
2013-12-16 12:02:00,45.7,33.0,30.25,SW,228,0.0,1.0,61,0.00,,---,0.00,VWS V14.01,2013-12-16 17:02:00,
2013-12-16 12:07:00,46.1,32.6,30.25,WSW,248,0.0,2.0,59,0.00,,---,0.00,VWS V14.01,2013-12-16 17:07:00,
2013-12-16 12:10:00,46.2,32.2,30.25,WSW,248,0.0,2.0,58,0.00,,---,0.00,VWS V14.01,2013-12-16 17:10:00,
2013-12-16 12:12:00,46.4,32.4,30.25,WSW,249,0.0,0.0,58,0.00,,---,0.00,VWS V14.01,2013-12-16 17:12:00,
2013-12-16 12:17:00,46.8,33.2,30.24,WSW,248,0.0,0.0,59,0.00,,---,0.00,VWS V14.01,2013-12-16 17:17:00,
2013-12-16 12:20:00,46.9,32.5,30.24,East,88,0.0,0.0,57,0.00,,---,0.00,VWS V14.01,2013-12-16 17:20:00,
2013-12-16 12:22:00,47.1,33.1,30.24,NE,51,0.0,0.0,58,0.00,,---,0.00,VWS V14.01,2013-12-16 17:22:00,
2013-12-16 12:27:00,47.2,32.8,30.23,SW,214,0.0,1.0,57,0.00,,---,0.00,VWS V14.01,2013-12-16 17:27:00,
2013-12-16 12:30:00,47.3,32.8,30.23,NNE,14,0.0,1.0,57,0.00,,---,0.00,VWS V14.01,2013-12-16 17:30:00,
2013-12-16 12:32:00,47.4,32.5,30.23,NNE,15,0.0,0.0,56,0.00,,---,0.00,VWS V14.01,2013-12-16 17:32:00,
2013-12-16 12:37:00,47.6,31.8,30.23,ENE,64,1.0,1.0,54,0.00,,---,0.00,VWS V14.01,2013-12-16 17:37:00,
2013-12-16 12:40:00,47.7,31.4,30.23,SE,132,0.0,1.0,53,0.00,,---,0.00,VWS V14.01,2013-12-16 17:40:00,
2013-12-16 12:42:00,47.7,32.3,30.23,SE,134,0.0,0.0,55,0.00,,---,0.00,VWS V14.01,2013-12-16 17:42:00,
2013-12-16 12:47:00,48.0,32.2,30.23,SE,136,0.0,1.0,54,0.00,,---,0.00,VWS V14.01,2013-12-16 17:47:00,
2013-12-16 12:50:00,48.1,32.3,30.22,ENE,70,0.0,1.0,54,0.00,,---,0.00,VWS V14.01,2013-12-16 17:50:00,
2013-12-16 12:52:00,48.1,31.3,30.22,ENE,74,0.0,1.0,52,0.00,,---,0.00,VWS V14.01,2013-12-16 17:52:00,
2013-12-16 12:57:00,48.1,31.3,30.22,ENE,69,0.0,1.0,52,0.00,,---,0.00,VWS V14.01,2013-12-16 17:57:00,
2013-12-16 13:00:00,48.2,31.4,30.22,East,88,0.0,1.0,52,0.00,,---,0.00,VWS V14.01,2013-12-16 18:00:00,
2013-12-16 13:02:00,48.3,31.0,30.22,East,86,0.0,0.0,51,0.00,,---,0.00,VWS V14.01,2013-12-16 18:02:00,
2013-12-16 13:07:00,48.4,32.1,30.21,ENE,68,0.0,1.0,53,0.00,,---,0.00,VWS V14.01,2013-12-16 18:07:00,
2013-12-16 13:10:00,48.5,31.7,30.21,East,84,0.0,1.0,52,0.00,,---,0.00,VWS V14.01,2013-12-16 18:10:00,
2013-12-16 13:12:00,48.5,31.2,30.22,East,79,0.0,1.0,51,0.00,,---,0.00,VWS V14.01,2013-12-16 18:12:00,
2013-12-16 13:17:00,48.6,31.3,30.22,ENE,78,0.0,1.0,51,0.00,,---,0.00,VWS V14.01,2013-12-16 18:17:00,
2013-12-16 13:20:00,48.6,31.3,30.21,ENE,75,0.0,1.0,51,0.00,,---,0.00,VWS V14.01,2013-12-16 18:20:00,
2013-12-16 13:22:00,48.6,30.8,30.21,East,82,0.0,0.0,50,0.00,,---,0.00,VWS V14.01,2013-12-16 18:22:00,
2013-12-16 13:27:00,48.6,31.8,30.22,East,88,1.0,1.0,52,0.00,,---,0.00,VWS V14.01,2013-12-16 18:27:00,
2013-12-16 13:30:00,48.8,32.0,30.22,SSE,147,0.0,1.0,52,0.00,,---,0.00,VWS V14.01,2013-12-16 18:30:00,
2013-12-16 13:32:00,48.9,32.1,30.21,East,101,0.0,0.0,52,0.00,,---,0.00,VWS V14.01,2013-12-16 18:32:00,
2013-12-16 13:37:00,48.9,31.1,30.21,NE,41,0.0,1.0,50,0.00,,---,0.00,VWS V14.01,2013-12-16 18:37:00,
2013-12-16 13:40:00,48.9,30.1,30.21,SE,136,0.0,3.0,48,0.00,,---,0.00,VWS V14.01,2013-12-16 18:40:00,
2013-12-16 13:42:00,48.9,31.1,30.21,SE,141,0.0,1.0,50,0.00,,---,0.00,VWS V14.01,2013-12-16 18:42:00,
2013-12-16 13:47:00,48.9,30.6,30.21,ENE,73,0.0,1.0,49,0.00,,---,0.00,VWS V14.01,2013-12-16 18:47:00,
2013-12-16 13:50:00,48.8,31.5,30.21,ENE,74,0.0,1.0,51,0.00,,---,0.00,VWS V14.01,2013-12-16 18:50:00,
2013-12-16 13:52:00,48.9,31.6,30.20,ENE,74,0.0,0.0,51,0.00,,---,0.00,VWS V14.01,2013-12-16 18:52:00,
2013-12-16 13:57:00,48.9,31.6,30.20,ENE,74,0.0,1.0,51,0.00,,---,0.00,VWS V14.01,2013-12-16 18:57:00,
2013-12-16 14:00:00,48.9,32.1,30.20,ENE,75,0.0,1.0,52,0.00,,---,0.00,VWS V14.01,2013-12-16 19:00:00,
2013-12-16 14:02:00,48.9,31.6,30.20,ENE,75,0.0,0.0,51,0.00,,---,0.00,VWS V14.01,2013-12-16 19:02:00,
2013-12-16 14:07:00,49.1,32.2,30.20,ENE,75,0.0,0.0,52,0.00,,---,0.00,VWS V14.01,2013-12-16 19:07:00,
2013-12-16 14:10:00,49.1,31.8,30.20,ENE,75,0.0,0.0,51,0.00,,---,0.00,VWS V14.01,2013-12-16 19:10:00,
2013-12-16 14:12:00,49.2,32.8,30.20,NE,42,0.0,0.0,53,0.00,,---,0.00,VWS V14.01,2013-12-16 19:12:00,
2013-12-16 14:17:00,49.2,31.9,30.20,NE,44,0.0,0.0,51,0.00,,---,0.00,VWS V14.01,2013-12-16 19:17:00,
2013-12-16 14:20:00,49.1,32.2,30.20,NE,44,0.0,0.0,52,0.00,,---,0.00,VWS V14.01,2013-12-16 19:20:00,
2013-12-16 14:22:00,49.1,32.2,30.20,NE,44,0.0,0.0,52,0.00,,---,0.00,VWS V14.01,2013-12-16 19:22:00,
2013-12-16 14:27:00,49.1,31.8,30.20,ENE,70,0.0,1.0,51,0.00,,---,0.00,VWS V14.01,2013-12-16 19:27:00,
2013-12-16 14:30:00,49.2,32.3,30.19,NNE,14,0.0,1.0,52,0.00,,---,0.00,VWS V14.01,2013-12-16 19:30:00,
2013-12-16 14:32:00,49.2,32.8,30.19,NNE,14,0.0,0.0,53,0.00,,---,0.00,VWS V14.01,2013-12-16 19:32:00,
2013-12-16 14:37:00,49.3,32.4,30.19,South,188,0.0,2.0,52,0.00,,---,0.00,VWS V14.01,2013-12-16 19:37:00,
2013-12-16 14:40:00,49.3,32.9,30.20,South,188,0.0,2.0,53,0.00,,---,0.00,VWS V14.01,2013-12-16 19:40:00,
2013-12-16 14:42:00,49.3,32.0,30.20,South,188,0.0,0.0,51,0.00,,---,0.00,VWS V14.01,2013-12-16 19:42:00,
2013-12-16 14:47:00,49.4,32.5,30.20,ESE,122,0.0,1.0,52,0.00,,---,0.00,VWS V14.01,2013-12-16 19:47:00,
2013-12-16 14:50:00,49.5,33.1,30.20,ESE,122,0.0,1.0,53,0.00,,---,0.00,VWS V14.01,2013-12-16 19:50:00,
2013-12-16 14:52:00,49.5,32.1,30.20,ESE,122,0.0,0.0,51,0.00,,---,0.00,VWS V14.01,2013-12-16 19:52:00,
2013-12-16 14:57:00,49.6,32.2,30.20,ENE,70,0.0,1.0,51,0.00,,---,0.00,VWS V14.01,2013-12-16 19:57:00,
2013-12-16 15:00:00,49.7,32.8,30.20,ENE,70,0.0,1.0,52,0.00,,---,0.00,VWS V14.01,2013-12-16 20:00:00,
2013-12-16 15:02:00,49.7,31.8,30.20,ENE,72,0.0,0.0,50,0.00,,---,0.00,VWS V14.01,2013-12-16 20:02:00,
2013-12-16 15:07:00,49.7,31.8,30.20,ENE,71,0.0,0.0,50,0.00,,---,0.00,VWS V14.01,2013-12-16 20:07:00,
2013-12-16 15:10:00,49.7,31.8,30.20,ENE,70,0.0,0.0,50,0.00,,---,0.00,VWS V14.01,2013-12-16 20:10:00,
2013-12-16 15:12:00,49.7,31.3,30.20,ENE,70,0.0,0.0,49,0.00,,---,0.00,VWS V14.01,2013-12-16 20:12:00,
2013-12-16 15:17:00,49.8,31.4,30.20,ENE,70,0.0,0.0,49,0.00,,---,0.00,VWS V14.01,2013-12-16 20:17:00,
2013-12-16 15:20:00,49.8,31.4,30.20,ENE,72,0.0,1.0,49,0.00,,---,0.00,VWS V14.01,2013-12-16 20:20:00,
2013-12-16 15:22:00,49.8,31.9,30.20,ENE,72,0.0,0.0,50,0.00,,---,0.00,VWS V14.01,2013-12-16 20:22:00,
2013-12-16 15:27:00,49.8,31.9,30.20,ENE,72,0.0,0.0,50,0.00,,---,0.00,VWS V14.01,2013-12-16 20:27:00,
2013-12-16 15:30:00,49.8,31.9,30.20,ENE,72,0.0,0.0,50,0.00,,---,0.00,VWS V14.01,2013-12-16 20:30:00,
2013-12-16 15:32:00,49.9,32.5,30.20,ENE,72,0.0,0.0,51,0.00,,---,0.00,VWS V14.01,2013-12-16 20:32:00,
2013-12-16 15:37:00,49.8,32.4,30.20,ENE,72,0.0,0.0,51,0.00,,---,0.00,VWS V14.01,2013-12-16 20:37:00,
2013-12-16 15:40:00,49.9,33.0,30.20,ENE,72,0.0,0.0,52,0.00,,---,0.00,VWS V14.01,2013-12-16 20:40:00,
2013-12-16 15:42:00,49.8,32.4,30.20,ENE,72,0.0,0.0,51,0.00,,---,0.00,VWS V14.01,2013-12-16 20:42:00,
2013-12-16 15:47:00,49.7,31.8,30.20,ENE,72,0.0,1.0,50,0.00,,---,0.00,VWS V14.01,2013-12-16 20:47:00,
2013-12-16 15:50:00,49.7,32.3,30.20,ENE,72,0.0,1.0,51,0.00,,---,0.00,VWS V14.01,2013-12-16 20:50:00,
2013-12-16 15:52:00,49.7,31.8,30.20,ENE,72,0.0,0.0,50,0.00,,---,0.00,VWS V14.01,2013-12-16 20:52:00,
2013-12-16 15:57:00,49.7,31.8,30.20,ENE,72,0.0,0.0,50,0.00,,---,0.00,VWS V14.01,2013-12-16 20:57:00,
2013-12-16 16:00:00,49.7,32.3,30.20,ENE,72,0.0,0.0,51,0.00,,---,0.00,VWS V14.01,2013-12-16 21:00:00,
2013-12-16 16:02:00,49.7,32.3,30.20,ENE,72,0.0,0.0,51,0.00,,---,0.00,VWS V14.01,2013-12-16 21:02:00,
2013-12-16 16:07:00,49.7,32.3,30.20,ENE,63,0.0,0.0,51,0.00,,---,0.00,VWS V14.01,2013-12-16 21:07:00,
2013-12-16 16:10:00,49.7,32.8,30.20,ENE,64,0.0,0.0,52,0.00,,---,0.00,VWS V14.01,2013-12-16 21:10:00,
2013-12-16 16:12:00,49.7,32.3,30.19,ENE,62,0.0,1.0,51,0.00,,---,0.00,VWS V14.01,2013-12-16 21:12:00,
2013-12-16 16:17:00,49.7,31.8,30.19,ENE,62,0.0,1.0,50,0.00,,---,0.00,VWS V14.01,2013-12-16 21:17:00,
2013-12-16 16:20:00,49.6,31.7,30.19,ENE,62,0.0,1.0,50,0.00,,---,0.00,VWS V14.01,2013-12-16 21:20:00,
2013-12-16 16:22:00,49.6,31.7,30.19,ENE,63,0.0,0.0,50,0.00,,---,0.00,VWS V14.01,2013-12-16 21:22:00,
2013-12-16 16:27:00,49.6,31.7,30.20,ENE,63,0.0,0.0,50,0.00,,---,0.00,VWS V14.01,2013-12-16 21:27:00,
2013-12-16 16:30:00,49.5,31.6,30.20,ENE,62,0.0,0.0,50,0.00,,---,0.00,VWS V14.01,2013-12-16 21:30:00,
2013-12-16 16:32:00,49.5,31.6,30.19,ENE,62,0.0,0.0,50,0.00,,---,0.00,VWS V14.01,2013-12-16 21:32:00,
2013-12-16 16:37:00,49.4,31.6,30.19,ENE,63,0.0,0.0,50,0.00,,---,0.00,VWS V14.01,2013-12-16 21:37:00,
2013-12-16 16:40:00,49.4,31.6,30.19,ENE,63,0.0,0.0,50,0.00,,---,0.00,VWS V14.01,2013-12-16 21:40:00,
2013-12-16 16:42:00,49.3,32.0,30.19,ENE,63,0.0,0.0,51,0.00,,---,0.00,VWS V14.01,2013-12-16 21:42:00,
2013-12-16 16:47:00,49.2,31.9,30.19,ENE,62,0.0,0.0,51,0.00,,---,0.00,VWS V14.01,2013-12-16 21:47:00,
2013-12-16 16:50:00,49.1,32.2,30.19,ENE,62,0.0,0.0,52,0.00,,---,0.00,VWS V14.01,2013-12-16 21:50:00,
2013-12-16 16:52:00,49.0,31.7,30.20,ENE,63,0.0,0.0,51,0.00,,---,0.00,VWS V14.01,2013-12-16 21:52:00,
2013-12-16 16:57:00,48.8,32.0,30.20,ENE,63,0.0,0.0,52,0.00,,---,0.00,VWS V14.01,2013-12-16 21:57:00,
2013-12-16 17:00:00,48.7,31.9,30.20,ENE,63,0.0,0.0,52,0.00,,---,0.00,VWS V14.01,2013-12-16 22:00:00,
2013-12-16 17:02:00,48.6,31.8,30.20,ENE,62,0.0,0.0,52,0.00,,---,0.00,VWS V14.01,2013-12-16 22:02:00,
2013-12-16 17:07:00,48.4,32.1,30.20,ENE,62,0.0,0.0,53,0.00,,---,0.00,VWS V14.01,2013-12-16 22:07:00,
2013-12-16 17:10:00,48.3,32.0,30.20,ENE,63,0.0,0.0,53,0.00,,---,0.00,VWS V14.01,2013-12-16 22:10:00,
2013-12-16 17:12:00,48.2,32.3,30.20,ENE,62,0.0,0.0,54,0.00,,---,0.00,VWS V14.01,2013-12-16 22:12:00,
2013-12-16 17:17:00,48.0,32.6,30.20,ENE,62,0.0,0.0,55,0.00,,---,0.00,VWS V14.01,2013-12-16 22:17:00,
2013-12-16 17:20:00,47.9,33.0,30.20,ENE,62,0.0,0.0,56,0.00,,---,0.00,VWS V14.01,2013-12-16 22:20:00,
2013-12-16 17:22:00,47.8,33.3,30.20,ENE,63,0.0,0.0,57,0.00,,---,0.00,VWS V14.01,2013-12-16 22:22:00,
2013-12-16 17:27:00,47.5,33.0,30.20,ENE,62,0.0,0.0,57,0.00,,---,0.00,VWS V14.01,2013-12-16 22:27:00,
2013-12-16 17:30:00,47.4,33.4,30.20,ENE,62,0.0,0.0,58,0.00,,---,0.00,VWS V14.01,2013-12-16 22:30:00,
2013-12-16 17:32:00,47.2,33.6,30.20,ENE,62,0.0,0.0,59,0.00,,---,0.00,VWS V14.01,2013-12-16 22:32:00,
2013-12-16 17:37:00,46.9,33.3,30.20,ENE,62,0.0,0.0,59,0.00,,---,0.00,VWS V14.01,2013-12-16 22:37:00,
2013-12-16 17:40:00,46.8,33.7,30.20,ENE,62,0.0,0.0,60,0.00,,---,0.00,VWS V14.01,2013-12-16 22:40:00,
2013-12-16 17:42:00,46.6,33.5,30.20,ENE,62,0.0,0.0,60,0.00,,---,0.00,VWS V14.01,2013-12-16 22:42:00,
2013-12-16 17:47:00,46.3,33.6,30.20,ENE,62,0.0,0.0,61,0.00,,---,0.00,VWS V14.01,2013-12-16 22:47:00,
2013-12-16 17:50:00,46.1,33.8,30.20,ENE,63,0.0,0.0,62,0.00,,---,0.00,VWS V14.01,2013-12-16 22:50:00,
2013-12-16 17:52:00,45.9,34.0,30.20,ENE,62,0.0,0.0,63,0.00,,---,0.00,VWS V14.01,2013-12-16 22:52:00,
2013-12-16 17:57:00,45.4,34.3,30.21,ENE,63,0.0,0.0,65,0.00,,---,0.00,VWS V14.01,2013-12-16 22:57:00,
2013-12-16 18:00:00,45.2,34.2,30.21,ENE,62,0.0,0.0,65,0.00,,---,0.00,VWS V14.01,2013-12-16 23:00:00,
2013-12-16 18:02:00,45.0,34.3,30.21,ENE,62,0.0,0.0,66,0.00,,---,0.00,VWS V14.01,2013-12-16 23:02:00,
2013-12-16 18:07:00,44.6,34.7,30.21,ENE,63,0.0,0.0,68,0.00,,---,0.00,VWS V14.01,2013-12-16 23:07:00,
2013-12-16 18:10:00,44.5,34.6,30.21,ENE,62,0.0,0.0,68,0.00,,---,0.00,VWS V14.01,2013-12-16 23:10:00,
2013-12-16 18:12:00,44.3,34.4,30.20,ENE,63,0.0,0.0,68,0.00,,---,0.00,VWS V14.01,2013-12-16 23:12:00,
2013-12-16 18:17:00,44.0,34.1,30.20,ENE,62,0.0,0.0,68,0.00,,---,0.00,VWS V14.01,2013-12-16 23:17:00,
2013-12-16 18:20:00,43.8,33.9,30.20,ENE,62,0.0,0.0,68,0.00,,---,0.00,VWS V14.01,2013-12-16 23:20:00,
2013-12-16 18:22:00,43.7,34.2,30.20,ENE,62,0.0,0.0,69,0.00,,---,0.00,VWS V14.01,2013-12-16 23:22:00,
2013-12-16 18:27:00,43.5,34.4,30.21,ENE,63,0.0,0.0,70,0.00,,---,0.00,VWS V14.01,2013-12-16 23:27:00,
2013-12-16 18:30:00,43.4,34.3,30.21,ENE,62,0.0,0.0,70,0.00,,---,0.00,VWS V14.01,2013-12-16 23:30:00,
2013-12-16 18:32:00,43.3,34.2,30.21,ENE,62,0.0,0.0,70,0.00,,---,0.00,VWS V14.01,2013-12-16 23:32:00,
2013-12-16 18:37:00,43.1,34.3,30.21,ENE,63,0.0,0.0,71,0.00,,---,0.00,VWS V14.01,2013-12-16 23:37:00,
2013-12-16 18:40:00,42.9,34.2,30.21,ENE,62,0.0,0.0,71,0.00,,---,0.00,VWS V14.01,2013-12-16 23:40:00,
2013-12-16 18:42:00,42.8,34.4,30.21,ENE,63,0.0,0.0,72,0.00,,---,0.00,VWS V14.01,2013-12-16 23:42:00,
2013-12-16 18:47:00,42.6,34.9,30.21,ENE,63,0.0,0.0,74,0.00,,---,0.00,VWS V14.01,2013-12-16 23:47:00,
2013-12-16 18:50:00,42.5,35.2,30.21,ENE,63,0.0,0.0,75,0.00,,---,0.00,VWS V14.01,2013-12-16 23:50:00,
2013-12-16 18:52:00,42.4,35.4,30.21,ENE,63,0.0,0.0,76,0.00,,---,0.00,VWS V14.01,2013-12-16 23:52:00,
2013-12-16 18:57:00,42.2,35.5,30.21,ENE,62,0.0,0.0,77,0.00,,---,0.00,VWS V14.01,2013-12-16 23:57:00,
2013-12-16 19:00:00,42.1,35.4,30.21,ENE,62,0.0,0.0,77,0.00,,---,0.00,VWS V14.01,2013-12-17 00:00:00,
2013-12-16 19:02:00,41.9,35.2,30.21,ENE,62,0.0,0.0,77,0.00,,---,0.00,VWS V14.01,2013-12-17 00:02:00,
2013-12-16 19:07:00,41.6,35.3,30.21,ENE,63,0.0,0.0,78,0.00,,---,0.00,VWS V14.01,2013-12-17 00:07:00,
2013-12-16 19:10:00,41.5,35.2,30.21,ENE,62,0.0,0.0,78,0.00,,---,0.00,VWS V14.01,2013-12-17 00:10:00,
2013-12-16 19:12:00,41.4,35.1,30.21,ENE,62,0.0,0.0,78,0.00,,---,0.00,VWS V14.01,2013-12-17 00:12:00,
2013-12-16 19:17:00,41.1,35.1,30.22,ENE,63,0.0,0.0,79,0.00,,---,0.00,VWS V14.01,2013-12-17 00:17:00,
2013-12-16 19:20:00,41.0,35.0,30.22,ENE,63,0.0,0.0,79,0.00,,---,0.00,VWS V14.01,2013-12-17 00:20:00,
2013-12-16 19:22:00,40.9,35.2,30.22,ENE,63,0.0,0.0,80,0.00,,---,0.00,VWS V14.01,2013-12-17 00:22:00,
2013-12-16 19:27:00,40.7,35.3,30.22,ENE,62,0.0,0.0,81,0.00,,---,0.00,VWS V14.01,2013-12-17 00:27:00,
2013-12-16 19:30:00,40.6,35.2,30.22,ENE,63,0.0,0.0,81,0.00,,---,0.00,VWS V14.01,2013-12-17 00:30:00,
2013-12-16 19:32:00,40.5,35.1,30.22,ENE,62,0.0,0.0,81,0.00,,---,0.00,VWS V14.01,2013-12-17 00:32:00,
2013-12-16 19:37:00,40.3,35.2,30.22,ENE,63,0.0,0.0,82,0.00,,---,0.00,VWS V14.01,2013-12-17 00:37:00,
2013-12-16 19:40:00,40.3,35.2,30.22,ENE,62,0.0,0.0,82,0.00,,---,0.00,VWS V14.01,2013-12-17 00:40:00,
2013-12-16 19:42:00,40.2,35.2,30.22,ENE,63,0.0,0.0,82,0.00,,---,0.00,VWS V14.01,2013-12-17 00:42:00,
2013-12-16 19:47:00,40.1,35.4,30.22,ENE,62,0.0,0.0,83,0.00,,---,0.00,VWS V14.01,2013-12-17 00:47:00,
2013-12-16 19:50:00,40.0,35.6,30.23,ENE,62,0.0,0.0,84,0.00,,---,0.00,VWS V14.01,2013-12-17 00:50:00,
2013-12-16 19:51:00,40.0,35.6,30.23,ENE,62,0.0,0.0,84,0.00,,---,0.00,VWS V14.01,2013-12-17 00:51:00,
2013-12-16 19:56:00,39.9,35.5,30.23,ENE,63,0.0,0.0,84,0.00,,---,0.00,VWS V14.01,2013-12-17 00:56:00,
2013-12-16 20:00:00,39.9,35.5,30.23,ENE,62,0.0,0.0,84,0.00,,---,0.00,VWS V14.01,2013-12-17 01:00:00,
2013-12-16 20:02:00,39.9,35.5,30.23,ENE,62,0.0,0.0,84,0.00,,---,0.00,VWS V14.01,2013-12-17 01:02:00,
2013-12-16 20:07:00,39.8,35.4,30.23,ENE,62,0.0,0.0,84,0.00,,---,0.00,VWS V14.01,2013-12-17 01:07:00,
2013-12-16 20:10:00,39.8,35.7,30.23,ENE,63,0.0,0.0,85,0.00,,---,0.00,VWS V14.01,2013-12-17 01:10:00,
2013-12-16 20:12:00,39.8,35.4,30.23,ENE,62,0.0,0.0,84,0.00,,---,0.00,VWS V14.01,2013-12-17 01:12:00,
2013-12-16 20:17:00,39.7,35.3,30.23,ENE,62,0.0,0.0,84,0.00,,---,0.00,VWS V14.01,2013-12-17 01:17:00,
2013-12-16 20:20:00,39.7,35.0,30.23,ENE,62,0.0,0.0,83,0.00,,---,0.00,VWS V14.01,2013-12-17 01:20:00,
2013-12-16 20:22:00,39.7,35.0,30.23,ENE,62,0.0,0.0,83,0.00,,---,0.00,VWS V14.01,2013-12-17 01:22:00,
2013-12-16 20:25:00,39.7,35.3,30.23,ENE,63,0.0,0.0,84,0.00,,---,0.00,VWS V14.01,2013-12-17 01:25:00,
2013-12-16 20:30:00,39.7,35.3,30.23,ENE,63,0.0,0.0,84,0.00,,---,0.00,VWS V14.01,2013-12-17 01:30:00,
2013-12-16 20:35:00,39.6,35.2,30.23,ENE,62,0.0,0.0,84,0.00,,---,0.00,VWS V14.01,2013-12-17 01:35:00,
2013-12-16 20:40:00,39.5,35.4,30.23,ENE,63,0.0,0.0,85,0.00,,---,0.00,VWS V14.01,2013-12-17 01:40:00,
2013-12-16 20:45:00,39.4,35.3,30.23,ENE,62,0.0,0.0,85,0.00,,---,0.00,VWS V14.01,2013-12-17 01:45:00,
2013-12-16 20:50:00,39.2,35.1,30.23,ENE,62,0.0,0.0,85,0.00,,---,0.00,VWS V14.01,2013-12-17 01:50:00,
2013-12-16 20:55:00,39.1,35.3,30.23,ENE,63,0.0,0.0,86,0.00,,---,0.00,VWS V14.01,2013-12-17 01:55:00,
2013-12-16 21:00:00,39.0,35.2,30.23,ENE,62,0.0,0.0,86,0.00,,---,0.00,VWS V14.01,2013-12-17 02:00:00,
2013-12-16 21:05:00,38.8,35.0,30.22,ENE,63,0.0,0.0,86,0.00,,---,0.00,VWS V14.01,2013-12-17 02:05:00,
2013-12-16 21:10:00,38.6,34.8,30.22,ENE,63,0.0,0.0,86,0.00,,---,0.00,VWS V14.01,2013-12-17 02:10:00,
2013-12-16 21:15:00,38.4,34.6,30.22,ENE,62,0.0,0.0,86,0.00,,---,0.00,VWS V14.01,2013-12-17 02:15:00,
2013-12-16 21:20:00,38.3,34.8,30.23,ENE,62,0.0,0.0,87,0.00,,---,0.00,VWS V14.01,2013-12-17 02:20:00,
2013-12-16 21:25:00,38.2,34.7,30.23,ENE,62,0.0,0.0,87,0.00,,---,0.00,VWS V14.01,2013-12-17 02:25:00,
2013-12-16 21:30:00,38.1,34.9,30.23,ENE,62,0.0,0.0,88,0.00,,---,0.00,VWS V14.01,2013-12-17 02:30:00,
2013-12-16 21:35:00,38.0,34.8,30.24,ENE,63,0.0,0.0,88,0.00,,---,0.00,VWS V14.01,2013-12-17 02:35:00,
2013-12-16 21:40:00,37.9,34.7,30.23,ENE,62,0.0,0.0,88,0.00,,---,0.00,VWS V14.01,2013-12-17 02:40:00,
2013-12-16 21:45:00,37.7,34.5,30.23,ENE,63,0.0,0.0,88,0.00,,---,0.00,VWS V14.01,2013-12-17 02:45:00,
2013-12-16 21:50:00,37.5,34.3,30.23,ENE,62,0.0,0.0,88,0.00,,---,0.00,VWS V14.01,2013-12-17 02:50:00,
2013-12-16 21:55:00,37.3,33.8,30.23,ENE,63,0.0,0.0,87,0.00,,---,0.00,VWS V14.01,2013-12-17 02:55:00,
2013-12-16 22:00:00,37.1,33.6,30.23,ENE,63,0.0,0.0,87,0.00,,---,0.00,VWS V14.01,2013-12-17 03:00:00,
2013-12-16 22:05:00,37.1,33.9,30.23,ENE,62,0.0,0.0,88,0.00,,---,0.00,VWS V14.01,2013-12-17 03:05:00,
2013-12-16 22:10:00,37.0,33.8,30.23,ENE,63,0.0,0.0,88,0.00,,---,0.00,VWS V14.01,2013-12-17 03:10:00,
2013-12-16 22:15:00,36.8,33.6,30.23,ENE,63,0.0,0.0,88,0.00,,---,0.00,VWS V14.01,2013-12-17 03:15:00,
2013-12-16 22:20:00,36.8,33.9,30.23,ENE,62,0.0,0.0,89,0.00,,---,0.00,VWS V14.01,2013-12-17 03:20:00,
2013-12-16 22:25:00,36.7,33.8,30.22,ENE,62,0.0,0.0,89,0.00,,---,0.00,VWS V14.01,2013-12-17 03:25:00,
2013-12-16 22:30:00,36.6,33.7,30.22,ENE,62,0.0,0.0,89,0.00,,---,0.00,VWS V14.01,2013-12-17 03:30:00,
2013-12-16 22:35:00,36.5,33.6,30.22,ENE,63,0.0,0.0,89,0.00,,---,0.00,VWS V14.01,2013-12-17 03:35:00,
2013-12-16 22:40:00,36.5,33.8,30.22,ENE,62,0.0,0.0,90,0.00,,---,0.00,VWS V14.01,2013-12-17 03:40:00,
2013-12-16 22:45:00,36.4,33.8,30.22,ENE,63,0.0,0.0,90,0.00,,---,0.00,VWS V14.01,2013-12-17 03:45:00,
2013-12-16 22:50:00,36.4,33.8,30.22,ENE,62,0.0,0.0,90,0.00,,---,0.00,VWS V14.01,2013-12-17 03:50:00,
2013-12-16 22:55:00,36.3,33.7,30.22,ENE,63,0.0,0.0,90,0.00,,---,0.00,VWS V14.01,2013-12-17 03:55:00,
2013-12-16 23:00:00,36.3,33.7,30.22,ENE,63,0.0,0.0,90,0.00,,---,0.00,VWS V14.01,2013-12-17 04:00:00,
2013-12-16 23:05:00,36.2,33.8,30.23,ENE,62,0.0,0.0,91,0.00,,---,0.00,VWS V14.01,2013-12-17 04:05:00,
2013-12-16 23:10:00,36.3,33.9,30.23,ENE,62,0.0,0.0,91,0.00,,---,0.00,VWS V14.01,2013-12-17 04:10:00,
2013-12-16 23:15:00,36.2,33.8,30.23,ENE,63,0.0,0.0,91,0.00,,---,0.00,VWS V14.01,2013-12-17 04:15:00,
2013-12-16 23:19:00,36.1,33.7,30.23,ENE,62,0.0,0.0,91,0.00,,---,0.00,VWS V14.01,2013-12-17 04:19:00,
2013-12-16 23:20:00,36.2,33.8,30.23,ENE,63,0.0,0.0,91,0.00,,---,0.00,VWS V14.01,2013-12-17 04:20:00,
2013-12-16 23:24:00,36.1,33.7,30.23,ENE,63,0.0,0.0,91,0.00,,---,0.00,VWS V14.01,2013-12-17 04:24:00,
2013-12-16 23:29:00,36.0,33.6,30.23,ENE,62,0.0,0.0,91,0.00,,---,0.00,VWS V14.01,2013-12-17 04:29:00,
2013-12-16 23:30:00,36.1,33.7,30.23,ENE,62,0.0,0.0,91,0.00,,---,0.00,VWS V14.01,2013-12-17 04:30:00,
2013-12-16 23:34:00,35.9,33.3,30.23,ENE,63,0.0,0.0,90,0.00,,---,0.00,VWS V14.01,2013-12-17 04:34:00,
2013-12-16 23:39:00,35.7,33.1,30.23,ENE,63,0.0,0.0,90,0.00,,---,0.00,VWS V14.01,2013-12-17 04:39:00,
2013-12-16 23:40:00,35.8,33.2,30.23,ENE,63,0.0,0.0,90,0.00,,---,0.00,VWS V14.01,2013-12-17 04:40:00,
2013-12-16 23:44:00,35.7,33.1,30.23,ENE,63,0.0,0.0,90,0.00,,---,0.00,VWS V14.01,2013-12-17 04:44:00,
2013-12-16 23:49:00,35.6,33.0,30.23,ENE,63,0.0,0.0,90,0.00,,---,0.00,VWS V14.01,2013-12-17 04:49:00,
2013-12-16 23:50:00,35.6,33.0,30.23,ENE,63,0.0,0.0,90,0.00,,---,0.00,VWS V14.01,2013-12-17 04:50:00,
2013-12-16 23:54:00,35.5,32.9,30.23,ENE,62,0.0,0.0,90,0.00,,---,0.00,VWS V14.01,2013-12-17 04:54:00,
2013-12-16 23:59:00,35.4,32.8,30.23,ENE,62,0.0,0.0,90,0.00,,---,0.00,VWS V14.01,2013-12-17 04:59:00,